GFSCGP_sfc_30mbdewp_000.txt.gz
Dewpoint
17 23 18 17 19 18 15 16 16 17 17 17 18 18 17 14 12 14 16 19 20 21 22 24 29 31 31 32 32 31 31 32 32 33 32 32 33 34 36 36 36 38 37 35
15 21 20 19 18 17 13 14 18 19 20 20 20 18 16 15 17 16 17 21 22 23 24 26 29 32 33 33 33 32 31 32 33 32 32 32 34 33 34 34 36 36 37 34
13 22 18 18 17 18 14 21 20 20 22 20 18 13 15 16 17 18 22 23 23 24 24 26 27 30 34 35 35 34 32 32 33 32 32 33 33 32 31 31 34 37 36 37
19 20 18 17 17 19 17 22 23 24 23 19 21 13 12 14 16 18 20 24 25 26 26 27 27 28 31 35 37 37 35 33 32 35 31 31 29 29 29 30 31 32 39 38
24 20 15 17 20 21 21 25 25 24 23 22 19 14 13 14 13 16 20 22 25 27 28 28 28 29 29 32 38 37 37 36 34 34 34 32 31 31 32 33 32 32 33 32
15 19 20 20 22 24 25 25 24 24 23 22 21 20 17 14 16 15 18 22 25 27 29 29 30 31 31 35 35 38 38 37 37 36 35 34 32 33 34 33 32 32 32 32
22 20 22 25 24 24 26 25 25 26 23 23 21 19 19 20 18 19 19 23 26 27 29 31 32 32 33 34 35 38 38 37 37 37 37 34 36 34 34 34 32 30 29 27
24 22 22 26 25 26 26 26 26 23 22 24 23 18 16 18 19 19 22 24 26 28 31 31 33 34 35 36 37 36 34 34 35 37 37 37 36 35 35 33 30 27 27 26
28 25 27 27 27 27 26 27 28 25 28 26 26 24 23 21 19 22 24 25 28 29 31 32 33 34 35 37 37 37 37 37 36 36 38 36 36 34 32 30 29 27 26 24
30 28 29 28 30 30 28 29 27 29 27 22 20 22 21 23 26 28 28 28 31 32 33 33 34 34 37 38 38 38 39 36 34 34 34 32 32 32 28 27 26 24 24 24
32 32 31 31 29 27 26 27 29 27 27 25 26 23 26 27 28 28 28 30 32 31 32 33 34 35 37 38 37 36 33 31 32 32 32 31 29 28 25 24 23 23 25 24
35 32 31 31 30 28 27 27 28 27 28 29 30 28 29 29 28 30 30 30 31 32 31 32 33 34 36 38 38 38 33 30 30 29 30 28 27 24 23 23 25 26 25 25
33 32 29 25 27 29 29 28 28 29 32 30 30 28 30 31 31 30 29 31 32 32 31 33 33 35 37 38 39 39 30 29 28 26 26 25 25 23 23 27 26 27 27 24
34 32 31 29 30 30 29 29 29 28 27 27 28 28 28 28 28 28 30 32 31 32 33 33 34 36 38 39 39 35 28 29 27 25 24 25 23 25 27 27 26 26 25 26
35 33 32 32 31 31 30 29 28 27 27 25 26 25 25 26 27 29 32 33 34 33 35 38 38 37 38 39 39 32 29 27 26 24 23 26 32 31 30 26 26 26 26 25
36 34 35 33 33 31 29 31 30 28 26 26 27 26 28 26 28 31 33 34 35 37 39 39 37 37 39 39 39 29 27 25 24 26 35 37 35 30 26 25 25 24 24 21
35 36 34 30 31 32 29 28 29 29 27 26 25 26 27 27 31 33 36 35 38 39 39 39 38 39 39 38 34 32 32 37 38 39 37 34 34 27 24 23 23 23 20 20
34 36 34 31 31 24 26 28 27 27 28 28 26 26 28 30 36 36 38 39 39 41 40 39 40 38 38 37 36 38 40 37 36 35 35 34 25 22 22 23 22 19 18 18
32 37 34 31 29 29 29 28 28 27 28 28 29 34 35 36 39 38 39 40 42 40 39 39 37 38 37 37 39 39 39 38 37 31 24 21 20 21 22 20 18 18 18 18
36 39 36 32 28 24 26 28 29 29 27 37 37 36 38 38 35 37 39 40 40 39 38 35 37 37 37 38 38 35 34 32 23 22 21 20 21 20 18 17 17 17 17 16
33 35 32 31 29 29 31 30 33 29 33 39 40 40 39 37 40 40 39 40 40 38 33 37 36 36 37 35 33 28 22 22 20 19 19 20 20 16 16 17 16 15 16 19
28 29 31 32 29 26 32 33 34 35 39 40 41 40 40 38 38 38 38 39 37 34 36 36 36 35 34 32 31 22 16 17 19 20 20 19 18 18 17 17 15 16 17 18
28 30 30 30 29 32 34 34 37 38 39 40 41 38 38 37 36 37 38 36 35 36 36 36 35 34 34 29 17 17 20 18 19 19 19 19 20 19 17 15 16 16 16 20
35 35 33 33 32 32 35 37 38 39 39 40 39 39 38 34 30 29 33 35 34 35 35 36 34 31 26 23 19 20 20 21 20 20 21 21 21 19 17 17 17 15 18 21
36 35 34 34 35 35 37 38 38 39 39 40 40 39 28 26 25 27 34 33 35 35 35 34 31 29 24 23 22 21 23 23 22 23 22 22 22 19 17 18 16 17 21 21
36 35 35 33 35 37 37 38 38 37 40 39 31 26 26 26 31 34 33 33 34 34 34 30 29 22 21 22 22 23 24 25 25 24 24 24 21 20 20 18 18 19 21 21

GFSCGP_sfc_30mbdewp_003.txt.gz
Dewpoint
17 22 18 18 19 19 17 15 17 20 21 21 20 20 20 17 16 17 20 21 23 24 28 32 32 30 32 31 29 29 30 32 33 32 33 32 32 34 36 36 40 41 39 35
17 21 19 19 19 19 17 20 21 21 24 24 22 20 20 17 17 19 22 23 24 24 26 29 32 32 30 30 31 30 30 31 32 32 33 32 31 32 33 35 37 39 39 36
16 20 19 18 20 19 18 22 22 23 25 26 22 18 16 18 18 22 23 23 24 24 25 26 28 31 33 33 32 32 32 31 33 32 32 33 34 35 32 32 36 37 36 37
19 20 16 17 20 21 18 24 24 25 25 22 24 18 16 17 17 21 22 25 26 27 28 29 27 29 33 34 35 34 33 34 35 35 31 30 30 30 29 29 30 35 37 37
20 15 14 20 20 22 22 25 26 26 26 25 21 21 15 17 17 19 23 26 27 29 29 28 28 29 30 34 37 36 35 35 35 36 35 32 30 32 31 31 31 34 38 39
18 21 22 20 25 26 27 28 28 30 25 21 23 20 19 18 16 19 25 27 28 29 29 31 32 33 33 36 37 38 36 35 36 36 36 35 33 31 32 33 33 34 33 32
27 22 24 27 25 28 27 28 25 18 22 22 24 19 18 22 20 22 23 25 26 28 30 30 30 32 35 37 37 38 39 39 38 38 37 36 36 34 32 32 33 31 29 29
27 25 27 28 27 26 27 27 27 22 23 23 25 21 21 22 21 22 23 25 29 29 31 32 33 36 37 37 37 38 37 37 38 38 38 38 39 38 34 35 34 30 27 28
30 27 31 27 28 28 27 28 29 26 29 25 26 26 22 26 28 29 29 30 31 32 33 33 35 37 38 38 37 36 36 35 35 35 35 36 39 36 33 27 27 26 26 27
32 30 33 33 32 30 28 30 27 28 25 24 23 23 23 27 27 30 30 30 32 33 33 35 35 37 37 38 37 38 37 35 32 32 30 31 28 26 27 27 24 22 25 26
34 33 31 32 31 30 27 27 29 30 29 29 27 27 29 28 30 31 29 32 32 32 32 33 34 38 38 38 39 39 37 37 29 31 30 29 27 24 24 22 23 24 25 25
33 32 30 29 32 32 29 30 29 28 31 30 30 29 31 31 31 30 33 32 33 31 33 34 37 38 38 39 40 39 38 32 27 31 28 26 24 21 20 23 25 26 26 27
33 30 28 25 29 32 31 31 32 31 30 28 28 28 31 32 32 32 31 33 34 34 36 39 39 39 38 38 39 39 38 28 28 26 24 22 21 21 24 26 25 25 25 26
34 32 30 26 29 32 31 31 31 31 28 27 27 28 27 27 27 30 33 34 34 36 38 39 39 39 38 38 39 39 31 29 30 25 23 22 23 23 27 27 27 26 26 25
34 32 33 33 33 33 32 31 31 30 29 27 27 27 27 26 29 32 35 36 36 38 39 39 39 39 38 39 39 34 31 32 31 25 25 30 32 31 29 29 26 27 27 26
38 33 35 33 34 34 31 31 30 30 29 29 27 26 28 26 35 36 36 37 38 38 39 38 39 39 39 39 36 35 35 35 36 36 37 37 35 34 32 27 27 27 25 25
36 34 34 30 34 32 29 26 28 28 27 28 27 29 36 35 36 37 37 38 39 39 39 39 39 39 39 39 36 36 37 38 38 38 37 37 37 36 34 30 25 24 22 20
33 33 34 31 32 25 27 29 27 29 29 31 35 37 38 39 40 39 38 39 38 38 40 39 38 38 38 37 37 38 39 40 37 36 36 36 37 35 25 23 22 20 18 17
38 35 32 30 29 29 30 29 29 27 27 37 36 36 37 40 39 38 39 40 39 39 40 38 38 38 37 36 37 38 38 38 38 36 33 25 23 21 20 19 17 16 15 15
38 37 31 30 26 23 24 29 34 32 28 37 39 40 39 40 34 34 39 40 39 40 39 37 37 36 36 36 37 35 31 34 21 19 20 21 20 19 16 16 15 16 16 16
29 32 29 29 28 28 30 31 37 27 30 38 42 41 41 38 38 40 38 38 38 37 36 36 35 35 36 33 29 24 15 17 19 21 21 20 19 17 17 17 16 14 16 18
28 27 29 31 29 24 33 33 30 33 38 38 39 40 38 40 40 37 35 36 36 35 35 35 35 35 33 31 24 12 15 19 20 20 20 20 20 19 18 15 15 16 17 19
28 29 26 30 28 32 34 33 35 35 36 39 40 40 41 40 37 31 28 34 34 34 34 35 35 34 31 20 18 21 21 22 22 21 22 22 21 21 17 16 16 18 19 20
34 35 32 32 32 32 34 35 36 37 39 41 42 42 37 35 34 28 33 33 33 34 34 35 32 29 28 20 20 21 24 24 22 23 23 23 22 20 18 18 19 18 18 18
35 36 33 33 34 34 35 35 37 40 43 43 41 37 35 31 33 33 32 32 33 33 34 34 30 29 24 23 23 24 24 24 24 24 24 24 22 19 20 20 19 19 19 21
37 35 34 32 34 35 36 38 39 40 40 39 37 31 33 34 32 31 31 33 32 32 34 33 29 22 22 23 23 24 25 24 24 24 24 24 21 20 20 20 19 20 21 22

GFSCGP_sfc_30mbdewp_006.txt.gz
Dewpoint
21 20 17 17 18 19 17 19 21 21 22 25 23 24 23 20 19 20 21 23 25 28 32 31 32 32 31 30 30 31 30 30 32 33 33 32 31 34 36 38 46 45 43 40
21 20 19 19 22 20 19 21 21 23 24 26 25 23 18 17 18 20 22 24 24 27 30 30 30 30 30 29 29 30 30 30 32 32 32 32 31 32 33 34 38 43 43 40
20 19 18 19 21 19 18 21 22 24 26 27 24 19 16 18 22 23 23 24 24 24 26 30 31 30 30 30 30 30 30 30 31 32 33 33 34 34 34 33 35 37 42 40
20 18 15 21 20 21 20 21 24 25 25 22 25 21 19 17 19 21 23 24 24 26 27 27 28 31 32 32 33 32 32 32 32 33 33 31 30 30 31 31 32 35 39 39
20 15 18 20 20 24 23 24 27 27 27 25 23 21 18 17 17 20 24 26 27 28 28 28 29 29 30 33 34 35 35 35 35 37 36 34 32 32 32 33 31 31 35 38
20 21 22 22 25 27 28 28 29 29 26 21 23 20 19 21 20 24 26 27 28 29 30 31 32 32 34 37 37 38 38 37 37 38 38 37 36 35 34 34 33 34 36 37
29 25 25 28 26 27 28 28 23 16 21 22 26 22 20 21 23 23 23 27 28 28 30 30 31 34 37 37 38 37 37 37 37 37 36 37 38 38 37 34 35 36 32 31
29 24 30 28 27 27 27 29 25 19 22 23 26 21 20 26 26 24 25 27 29 30 32 33 36 37 37 37 37 37 37 36 35 36 35 37 39 39 40 38 36 35 32 30
30 27 32 31 31 29 28 27 29 26 27 25 26 27 24 25 30 29 29 30 32 33 35 36 37 38 38 37 38 39 38 37 37 36 34 33 33 34 33 31 31 31 30 30
33 30 33 32 33 31 29 30 27 29 24 25 25 25 23 25 30 31 31 31 33 33 33 35 37 38 38 38 39 39 39 38 37 30 32 29 28 28 28 26 25 27 31 35
33 32 27 30 31 30 27 30 30 31 31 29 27 27 30 31 31 31 32 32 32 32 35 36 38 39 38 39 39 39 39 39 29 29 31 29 25 25 25 24 26 27 29 31
33 31 29 27 32 33 31 31 31 28 28 29 28 27 30 32 31 32 32 33 34 34 36 38 39 39 39 39 39 39 40 31 30 30 30 29 25 24 23 26 26 27 27 26
33 29 25 22 25 31 31 31 31 32 30 28 26 25 29 30 30 33 33 34 35 37 39 39 39 38 39 39 38 39 39 32 33 31 29 25 22 22 25 25 26 26 25 25
34 32 28 25 25 32 31 31 31 30 28 28 28 28 29 29 32 34 36 36 36 38 39 39 39 39 40 39 39 40 33 34 35 32 27 24 23 24 27 26 27 26 26 25
34 31 31 32 32 33 32 33 33 32 31 29 28 28 29 34 34 36 37 37 38 38 39 39 39 39 40 39 40 36 36 36 36 30 27 28 30 30 29 28 29 32 28 27
37 33 34 32 34 34 33 34 33 32 31 29 29 27 36 38 38 38 38 38 38 39 38 37 39 40 39 39 39 36 36 37 38 36 37 36 35 35 36 36 34 32 29 26
36 34 33 27 33 33 30 31 29 28 28 28 27 30 37 38 38 38 39 38 39 39 37 38 40 40 39 38 37 36 37 39 38 38 38 39 39 38 35 35 33 27 22 19
33 33 32 30 32 25 27 30 30 29 29 30 35 36 38 38 38 40 39 38 39 38 37 39 40 39 38 37 36 37 38 38 38 38 37 36 36 33 28 23 21 18 16 15
37 34 31 29 28 28 29 29 28 28 30 34 36 38 38 39 40 38 37 39 39 38 39 40 38 37 37 35 36 37 33 35 27 21 21 23 23 21 19 16 16 16 16 15
36 35 29 28 26 22 23 27 33 35 29 36 37 37 38 39 35 35 40 39 36 39 38 36 35 35 35 35 30 21 19 19 20 21 21 22 21 18 17 17 16 15 15 17
28 30 28 26 27 27 28 30 35 26 24 36 37 37 38 39 38 40 40 36 37 35 35 35 35 35 35 32 24 16 18 19 21 21 22 21 21 19 19 16 16 16 18 20
25 25 27 29 27 24 33 33 30 31 35 35 36 38 40 40 39 37 35 35 34 34 34 34 35 34 33 20 16 17 21 22 22 22 22 22 22 21 18 16 17 18 19 19
28 28 26 27 26 31 33 33 35 36 35 36 39 41 40 38 36 37 32 33 33 34 33 34 35 32 28 17 20 22 23 23 23 23 22 23 23 21 18 18 19 18 18 18
33 33 31 31 31 32 34 35 36 36 38 42 43 41 40 36 37 33 33 31 32 33 32 34 34 30 29 21 22 23 24 23 23 22 23 24 23 21 20 20 19 19 17 18
36 38 35 34 35 35 35 35 37 40 42 39 38 38 37 32 31 33 30 30 32 32 33 35 35 34 28 23 23 24 24 24 23 23 23 23 23 20 20 20 20 19 20 21
37 35 34 33 34 35 35 39 38 37 38 37 36 34 30 30 33 32 30 29 30 32 36 33 33 25 23 23 23 24 25 24 24 23 22 22 22 22 20 20 21 21 22 21

GFSCGP_sfc_30mbdewp_009.txt.gz
Dewpoint
24 20 17 18 19 19 18 20 21 22 22 25 25 25 25 22 19 18 19 21 27 28 31 31 32 32 33 34 33 29 28 29 34 34 34 34 33 34 37 38 40 45 47 45
22 18 19 21 22 20 20 20 19 24 25 27 25 24 17 18 19 21 23 26 27 29 29 31 31 30 30 30 31 31 31 31 31 32 32 32 32 32 33 35 37 41 45 45
19 19 18 21 20 19 20 19 21 22 26 26 25 21 17 20 22 23 24 25 27 28 29 29 30 29 30 29 29 30 30 30 31 32 33 33 34 34 33 33 34 36 43 46
21 17 20 20 21 23 21 21 23 24 26 22 25 18 20 17 20 22 24 24 25 26 27 29 31 31 31 31 32 32 32 33 33 34 33 33 32 31 31 32 33 34 37 40
20 16 21 22 23 25 24 28 27 28 27 25 23 19 20 20 17 20 25 26 27 28 28 28 28 28 30 33 34 36 37 37 38 38 38 37 36 36 36 36 35 35 35 39
26 23 24 24 25 28 29 29 28 29 26 21 24 22 20 21 21 24 26 27 28 28 29 30 32 33 36 38 37 37 37 37 37 37 37 38 37 37 38 38 37 37 36 37
30 29 29 28 27 29 29 28 18 16 19 21 26 21 21 23 24 25 26 27 28 28 29 31 31 36 37 37 37 37 38 37 37 37 37 35 36 38 38 37 38 38 35 34
29 21 30 30 27 27 28 28 23 15 19 22 26 21 23 25 26 25 26 26 29 31 33 34 37 37 37 37 38 38 38 38 38 37 32 33 33 34 36 38 37 37 33 32
30 26 32 32 32 29 28 27 30 26 26 25 25 27 27 29 31 30 29 31 33 35 36 37 38 38 38 38 38 39 39 39 39 33 31 31 31 31 31 31 34 32 32 34
33 29 32 31 32 32 29 30 27 29 24 22 25 25 24 27 31 30 33 32 32 34 36 37 38 38 38 39 39 40 39 39 38 31 31 31 30 29 30 30 30 29 32 37
31 31 25 29 28 29 29 30 30 31 30 27 26 26 31 29 30 30 32 33 33 34 36 37 38 39 39 39 39 39 39 40 33 32 32 32 31 27 27 27 29 31 33 33
34 31 26 26 31 33 32 31 30 27 26 28 27 25 29 30 31 32 34 35 35 35 37 38 39 39 39 39 40 39 40 38 33 35 34 33 31 27 25 26 27 28 27 27
32 29 23 20 25 27 30 32 32 31 29 28 25 24 29 31 31 34 35 36 36 36 37 39 39 39 39 40 40 39 40 34 35 36 35 33 29 25 25 27 27 28 26 25
33 31 27 23 23 28 29 31 32 31 29 28 28 28 30 31 33 35 36 37 37 37 38 39 39 39 39 40 40 39 38 36 37 37 36 29 25 24 26 27 28 32 31 28
34 31 31 31 31 32 32 32 33 32 32 30 30 30 30 31 36 37 37 38 38 38 39 39 39 38 40 40 39 39 37 37 38 38 33 29 28 30 29 35 37 34 30 30
37 31 33 31 33 33 32 33 33 33 33 32 31 28 29 37 38 38 38 38 38 38 39 39 37 38 40 40 39 38 37 37 39 38 37 37 38 38 38 37 35 35 34 28
35 33 33 26 31 31 24 27 30 31 29 28 26 28 35 36 37 38 38 39 39 37 39 37 37 39 40 39 38 37 36 38 38 38 38 38 38 39 37 36 34 26 20 18
32 33 31 28 31 23 23 30 29 29 29 30 30 34 36 37 38 39 39 40 38 39 36 36 39 40 37 37 36 36 37 36 35 28 24 26 26 25 24 21 18 17 17 16
35 32 30 29 27 26 27 26 27 27 27 32 33 36 35 36 39 38 38 40 36 35 35 38 37 36 35 35 34 25 22 22 22 23 23 24 24 23 19 17 17 17 15 16
35 32 31 27 25 23 23 25 30 35 30 34 37 35 34 36 34 34 41 38 37 36 37 35 35 34 35 35 22 27 26 23 22 26 24 22 20 19 19 18 16 16 17 19
29 30 29 27 25 26 28 30 32 28 27 32 35 35 35 35 37 40 38 37 36 36 35 35 34 35 35 30 23 21 19 23 22 22 22 22 22 22 20 17 17 18 19 20
25 24 25 27 25 23 32 33 29 31 33 35 36 36 38 40 39 37 34 35 33 34 33 33 34 34 33 23 21 19 20 22 23 22 22 23 23 21 19 18 19 19 19 17
28 28 26 27 26 30 31 33 34 36 36 36 39 41 41 38 37 33 33 34 32 31 33 33 34 34 31 23 19 21 23 22 22 22 22 24 24 22 20 20 19 18 18 18
34 35 32 31 32 32 34 36 36 37 37 42 39 38 36 35 33 30 33 33 31 31 32 33 34 34 34 30 22 22 23 24 23 22 22 23 23 21 21 20 20 20 18 19
36 38 36 34 36 37 37 36 38 41 40 37 37 37 36 33 31 30 32 32 30 30 32 35 34 32 30 29 22 24 24 24 23 23 23 22 22 22 22 20 20 21 22 21
39 36 34 34 36 35 35 41 40 38 37 37 35 33 32 31 30 32 33 32 31 30 33 34 32 31 24 24 24 23 25 25 24 23 23 23 22 22 22 19 20 21 21 22

GFSCGP_sfc_30mbdewp_012.txt.gz
Dewpoint
25 18 16 18 20 19 18 19 20 21 23 26 25 25 20 19 20 19 19 22 25 28 31 32 32 33 35 37 37 34 36 38 37 35 34 34 33 34 36 37 38 41 45 47
21 17 19 22 21 19 19 19 17 22 25 27 26 23 18 21 22 23 24 27 27 28 29 30 32 32 34 34 33 31 30 30 31 33 33 33 32 33 34 34 35 37 40 44
20 18 22 21 22 23 23 19 20 22 25 26 24 20 20 19 23 24 25 26 28 27 28 29 30 30 30 30 31 31 31 31 31 33 33 33 34 34 33 33 33 34 36 39
21 19 21 25 23 23 22 22 25 26 26 21 24 17 21 21 21 23 24 24 26 28 29 30 30 29 30 30 32 33 34 35 36 37 36 36 35 35 35 35 35 35 36 37
18 20 24 25 24 25 25 28 29 28 27 25 24 19 20 21 18 21 24 24 26 27 27 27 28 30 36 35 38 38 38 38 38 38 38 37 36 37 38 39 38 38 38 38
28 25 25 26 26 28 29 29 26 28 26 21 24 22 21 22 22 24 26 27 28 28 29 31 33 37 37 37 37 38 38 38 38 39 37 34 34 35 35 35 36 37 39 38
30 29 31 29 28 29 29 25 16 18 19 20 26 22 22 25 24 24 26 27 28 29 31 31 36 37 37 37 38 38 39 38 39 39 34 33 33 33 33 34 35 36 37 34
28 20 30 31 28 27 28 28 23 14 18 21 26 20 25 28 29 30 30 30 33 35 37 37 37 37 37 38 38 39 39 39 40 38 32 33 34 33 32 33 33 34 34 34
30 25 32 33 33 30 28 27 29 26 25 25 25 27 28 30 32 31 32 33 33 34 36 37 38 38 38 38 39 39 39 39 40 38 32 34 34 34 32 30 31 33 33 37
32 27 31 31 32 31 29 31 26 28 22 20 23 24 23 28 29 31 31 32 33 35 36 37 37 38 39 39 39 40 40 39 40 35 34 35 35 34 32 30 31 32 35 38
31 29 23 28 29 29 30 29 30 30 29 25 24 24 30 29 30 31 32 35 35 34 35 37 38 39 39 40 40 40 39 39 40 34 35 36 35 35 32 28 30 32 35 36
33 30 23 24 29 33 32 29 28 22 23 28 27 24 29 31 32 33 34 36 37 37 36 37 38 40 40 39 40 40 39 40 39 35 36 36 36 32 28 27 29 30 28 27
32 28 20 13 23 29 30 32 31 29 29 27 25 23 29 30 31 34 35 36 37 37 38 38 39 39 40 40 39 41 40 40 36 37 37 37 30 26 26 27 29 31 31 30
34 30 25 20 22 27 28 31 32 31 29 27 27 27 29 31 31 33 36 37 38 38 38 39 39 40 40 39 40 41 40 38 37 38 38 31 28 26 28 33 36 35 33 32
34 31 31 30 30 31 31 32 32 31 31 30 28 29 31 33 32 36 38 38 38 38 38 38 39 39 38 39 41 39 38 37 37 38 36 34 35 36 37 37 37 36 35 36
36 30 32 30 32 32 31 32 32 33 33 33 33 32 33 32 38 37 37 38 38 38 39 39 37 37 38 39 39 38 37 36 38 38 37 38 39 38 37 36 36 35 36 36
35 33 31 21 30 30 20 23 29 30 31 30 26 27 31 35 35 35 36 38 39 39 37 34 32 33 38 38 37 36 36 37 37 31 29 30 29 27 27 29 28 23 19 18
33 33 31 28 29 22 22 29 29 28 28 29 30 30 34 36 35 36 38 39 38 36 36 34 33 38 35 36 35 34 28 27 27 26 29 29 28 27 26 20 18 18 17 16
34 32 29 28 26 26 27 24 27 27 27 30 32 35 34 35 36 35 39 38 37 37 35 36 37 35 34 34 28 21 22 23 26 29 30 26 21 20 20 19 18 17 16 17
33 31 31 27 24 22 24 25 29 34 27 34 35 32 34 35 33 35 38 38 36 32 36 36 34 33 34 35 26 26 29 27 24 23 22 22 22 22 21 18 17 17 19 20
29 30 29 28 26 27 29 29 32 27 26 33 34 34 35 35 37 36 35 32 28 33 35 34 33 33 35 34 26 25 21 22 22 23 23 22 23 22 19 19 19 19 19 19
24 24 24 26 25 22 30 31 29 30 33 34 35 36 40 38 36 33 30 30 30 34 33 32 32 33 34 33 23 21 19 23 23 23 21 22 23 22 20 20 20 19 19 18
28 28 26 28 28 30 31 32 33 34 36 36 39 40 38 35 34 31 31 31 31 34 31 32 32 34 34 33 23 30 32 29 23 22 21 22 23 22 20 20 19 20 19 19
33 35 33 31 32 34 37 37 37 39 39 39 39 38 36 33 32 32 33 31 31 32 30 31 32 34 32 31 31 25 24 24 23 22 22 22 22 22 21 21 19 20 20 20
37 36 35 35 36 37 37 38 41 40 39 38 38 36 32 32 32 33 32 32 33 32 31 31 33 33 31 31 29 25 24 24 23 23 23 23 23 23 23 23 20 21 22 21
38 37 35 32 35 36 39 41 41 38 37 37 35 32 33 35 34 33 32 32 32 32 31 32 33 31 30 28 24 24 24 25 24 23 24 23 22 22 22 21 20 21 21 21

GFSCGP_sfc_30mbdewp_015.txt.gz
Dewpoint
24 19 17 20 20 19 18 18 20 21 24 26 26 25 21 22 23 21 23 24 27 28 31 32 34 35 37 42 44 45 43 44 44 41 38 37 37 37 38 38 40 41 42 44
20 18 20 22 22 20 19 19 18 22 25 27 26 22 21 23 25 26 28 28 29 29 30 32 34 36 38 39 41 38 34 34 34 35 36 37 37 37 37 38 40 41 41 41
19 18 22 21 24 24 24 20 21 22 25 27 24 20 22 21 24 25 27 28 29 29 30 31 32 34 35 35 35 33 34 36 37 39 38 38 39 39 37 36 36 38 41 41
19 22 24 25 24 25 21 23 28 27 26 21 25 16 22 22 21 24 25 26 27 29 30 31 32 34 36 37 41 40 40 39 40 41 39 39 36 35 35 37 37 39 40 40
17 23 25 25 24 26 27 29 29 28 27 26 25 19 22 23 21 22 26 27 28 30 30 32 36 38 38 40 40 41 40 40 41 41 38 37 37 37 37 37 36 37 38 40
27 29 27 27 26 28 30 29 26 28 27 22 25 22 24 24 23 25 27 29 30 31 32 33 38 38 39 41 41 42 41 40 41 41 37 38 38 38 37 37 35 34 35 37
28 29 31 29 27 29 30 24 17 19 20 20 26 22 25 28 29 29 30 30 35 37 37 37 37 38 38 39 40 40 40 40 41 41 37 37 38 39 38 37 35 35 34 35
26 21 30 32 29 27 29 28 23 12 17 21 27 22 26 30 31 32 34 34 35 37 38 38 38 38 39 40 40 41 40 40 41 41 39 37 39 38 37 35 36 35 34 35
28 25 32 33 33 30 28 28 29 26 25 26 25 27 28 31 31 32 32 33 34 36 37 38 38 39 40 40 40 41 41 39 40 41 39 37 38 38 36 37 36 34 35 38
32 25 30 30 32 32 30 31 26 29 21 18 22 25 23 28 29 31 32 34 36 35 36 37 38 39 40 41 41 41 42 40 40 41 38 37 38 37 37 35 33 33 36 39
31 28 23 29 30 29 30 29 30 30 30 25 23 23 30 29 31 31 32 36 37 37 37 37 38 39 40 41 41 41 42 41 40 40 37 38 38 37 32 30 31 33 37 37
33 30 19 23 31 33 32 29 27 21 21 28 28 23 28 31 32 33 34 36 38 38 38 38 39 39 41 41 40 40 42 41 40 38 38 38 35 29 28 29 31 32 30 30
32 28 17 12 25 28 30 32 30 29 29 27 25 22 29 31 30 33 34 37 37 38 39 39 39 40 40 38 39 40 41 40 39 37 38 35 30 28 29 34 35 35 34 35
34 30 24 14 16 26 26 29 31 31 29 26 26 25 28 30 31 33 35 37 37 38 39 39 39 38 37 37 39 40 39 38 37 38 37 34 33 31 36 37 37 36 36 35
34 30 31 30 30 31 30 30 31 31 31 29 27 28 29 32 34 34 36 37 37 37 39 39 36 34 35 38 38 37 36 37 38 38 38 37 37 38 38 36 32 33 32 32
35 29 32 30 31 31 29 30 31 32 32 32 32 31 33 34 37 36 35 36 36 39 38 35 33 32 34 37 35 34 35 36 38 36 34 31 31 31 29 30 31 32 30 22
34 33 30 20 29 28 22 23 28 28 30 29 26 26 33 33 35 35 35 37 38 36 35 32 30 33 37 34 33 34 34 34 31 30 29 30 30 30 27 25 21 21 20 19
34 33 30 27 28 17 22 29 29 28 28 30 29 30 33 34 35 36 38 37 37 35 33 31 32 37 35 32 35 31 28 29 28 28 30 30 25 22 22 21 20 19 19 18
34 33 28 27 25 26 25 25 26 27 26 28 31 33 34 35 36 35 38 37 36 35 34 31 36 35 32 34 34 23 23 25 27 27 23 22 23 21 21 20 19 19 19 19
33 31 31 28 25 23 25 26 30 33 26 33 35 35 36 35 33 36 37 37 31 32 30 34 35 33 32 34 35 31 27 28 24 23 23 22 22 22 21 20 19 20 20 19
29 30 29 28 26 28 30 30 31 28 29 34 35 35 36 35 37 37 36 34 32 31 30 35 33 31 32 34 34 30 24 21 23 24 23 21 22 22 21 20 20 19 19 21
24 24 24 27 25 22 29 30 29 32 36 35 37 36 39 38 37 36 34 34 31 31 31 34 31 31 33 34 30 24 24 26 27 25 22 21 22 22 20 20 20 19 20 21
27 28 27 29 29 30 30 32 34 36 37 38 39 38 38 36 35 33 33 32 33 32 33 33 31 32 34 34 32 27 29 32 31 24 22 22 22 22 21 21 22 20 20 21
32 33 31 32 33 33 35 37 40 41 40 39 39 38 37 36 34 32 33 33 32 32 32 32 31 31 33 33 31 31 30 26 24 23 22 23 23 23 23 23 23 20 21 21
34 36 35 34 36 36 36 39 41 40 40 39 38 37 35 34 33 34 33 32 32 32 32 32 32 32 33 33 31 29 26 25 24 24 24 24 24 23 23 22 21 21 23 21
38 37 35 33 36 37 40 41 41 38 36 35 36 32 30 33 33 33 31 31 32 32 32 31 31 30 26 26 24 25 25 25 25 24 24 25 24 24 22 20 20 21 22 21

GFSCGP_sfc_30mbdewp_018.txt.gz
Dewpoint
23 17 18 18 20 19 17 16 15 16 23 24 24 22 19 22 23 24 24 24 28 35 35 33 36 37 39 47 48 48 48 46 43 41 38 37 37 37 37 38 41 43 42 43
18 19 21 23 23 20 20 17 18 21 24 26 24 20 20 23 25 26 26 27 29 29 30 34 37 40 41 42 42 40 38 37 36 35 36 38 39 39 41 41 40 39 40 40
17 19 23 23 25 23 23 21 23 23 25 27 24 21 20 22 24 25 26 27 28 30 30 32 34 37 39 40 39 37 38 39 41 41 39 39 39 39 36 37 36 36 36 37
21 24 26 25 25 26 20 26 28 26 24 16 26 16 21 20 22 24 26 28 29 30 30 32 35 37 40 41 41 40 40 40 41 41 38 39 37 36 37 36 35 37 36 36
21 25 26 25 25 28 27 30 29 29 25 23 23 18 22 22 21 24 28 29 31 32 33 35 37 38 40 42 42 42 40 40 41 41 39 38 38 37 37 38 38 36 33 32
26 29 29 29 28 28 31 29 28 29 28 23 25 23 23 23 24 27 30 32 35 36 35 36 38 38 39 42 42 41 39 38 40 41 40 39 39 40 38 36 34 30 31 31
26 27 30 32 26 30 28 26 21 24 23 21 25 22 26 28 29 30 31 34 37 38 38 37 37 37 38 40 40 39 39 38 38 40 39 39 38 37 36 35 32 33 31 31
22 22 29 32 30 28 29 28 25 19 19 20 26 19 25 29 30 31 32 34 35 36 37 36 36 37 38 40 41 41 40 38 36 36 37 36 37 38 37 34 34 34 34 34
25 24 31 32 32 31 28 28 30 28 28 27 22 25 30 30 30 31 31 32 33 36 37 36 36 37 39 40 40 42 41 39 38 37 39 39 39 39 36 36 35 33 34 34
31 25 28 30 32 32 30 31 27 26 23 14 12 18 17 29 30 30 30 32 34 36 36 36 36 37 38 39 41 42 40 39 41 40 40 39 39 36 36 33 32 33 34 37
29 28 25 29 29 29 30 29 29 27 28 20 17 13 29 27 29 30 30 33 34 36 36 36 37 38 38 41 40 39 40 41 39 38 39 38 37 35 32 31 32 34 36 35
34 31 20 21 31 33 30 28 26 21 20 26 26 19 27 28 31 31 32 35 35 36 34 35 37 38 39 38 36 36 38 37 37 37 35 36 35 33 31 31 32 33 32 32
33 29 17 17 27 30 30 29 30 29 30 26 25 21 26 29 29 29 33 34 35 34 34 35 37 38 37 35 35 35 35 36 35 33 33 34 34 33 32 33 34 34 34 34
35 30 22 11 14 22 22 23 25 26 27 24 23 23 24 24 27 30 33 35 34 34 34 37 38 37 35 33 32 35 34 32 32 34 34 34 36 37 38 39 36 34 33 33
35 27 27 26 25 25 27 26 25 25 27 26 26 23 24 26 29 31 35 34 34 34 36 37 36 33 29 31 35 33 30 31 34 34 32 35 35 34 35 32 29 28 28 27
36 30 32 28 28 27 27 26 26 28 28 27 27 27 28 29 33 35 34 34 34 37 36 35 32 28 28 33 33 29 29 31 32 30 30 30 29 28 28 26 24 22 21 19
36 35 31 26 28 28 25 27 26 28 27 27 25 25 29 31 33 34 35 35 37 37 35 32 30 28 32 34 29 29 29 29 30 29 28 28 29 26 23 21 18 18 19 19
36 36 33 30 30 23 26 28 27 26 27 26 27 28 32 33 35 34 37 37 37 37 30 27 27 29 33 30 28 29 26 26 28 28 28 25 24 23 20 17 17 18 18 19
37 36 31 29 26 25 25 26 27 26 27 29 29 32 34 36 35 32 38 37 38 34 28 27 27 31 33 29 27 29 29 27 27 27 26 26 23 20 16 17 18 18 18 19
35 35 35 30 26 22 25 28 30 32 25 34 35 36 37 39 35 34 37 37 33 30 28 26 27 32 32 28 28 29 27 25 25 25 26 25 22 18 17 19 19 20 19 19
32 32 31 29 28 28 30 30 32 28 30 35 37 37 39 38 37 38 38 35 29 29 28 26 28 30 29 29 30 29 23 20 22 23 26 25 21 18 19 20 21 20 20 21
26 30 29 30 27 26 30 30 32 35 36 37 39 39 39 38 37 36 32 29 29 28 28 26 26 26 28 29 30 27 22 20 22 25 27 24 20 20 20 21 21 21 21 21
28 29 27 29 29 31 33 33 36 37 38 40 40 39 36 33 30 29 27 26 25 27 27 27 26 26 27 27 29 28 26 26 27 29 31 25 21 21 22 22 22 22 20 21
32 33 32 32 31 32 35 37 39 41 40 40 38 34 32 29 27 26 23 22 25 27 28 27 27 26 26 27 30 31 31 31 31 27 29 24 22 22 22 23 21 19 20 22
34 34 33 33 35 36 36 41 41 40 40 35 32 29 26 22 21 21 22 23 23 25 26 26 23 23 23 25 26 28 27 25 24 24 25 24 24 25 24 22 20 20 21 22
35 34 34 34 37 39 40 40 41 37 31 29 26 20 19 19 18 20 20 20 22 24 26 24 22 22 23 24 26 25 24 25 25 24 24 25 26 25 24 21 20 22 21 21

GFSCGP_sfc_30mbdewp_021.txt.gz
Dewpoint
21 18 15 15 15 14 11 11 11 13 19 18 17 17 18 22 22 24 23 24 24 27 39 37 39 39 42 47 48 50 50 49 45 42 39 37 38 38 38 39 42 43 43 43
14 17 20 20 19 18 17 16 15 19 21 21 20 18 20 22 25 24 26 29 32 33 34 36 39 42 42 42 42 41 41 40 39 37 39 40 41 40 41 42 41 40 39 39
17 20 21 22 21 20 20 19 22 20 21 22 21 18 19 22 24 25 27 28 29 30 31 33 37 40 42 42 40 39 40 41 42 41 39 39 39 39 37 38 38 38 40 39
20 24 23 22 23 24 19 25 25 23 21 16 21 16 20 21 23 25 27 29 29 30 32 34 37 39 42 43 42 41 41 40 41 42 39 40 39 38 39 40 40 41 41 38
22 23 24 23 25 26 24 28 26 26 23 19 18 14 21 20 21 25 28 30 32 33 34 36 37 40 41 43 44 43 40 41 41 42 41 41 40 40 40 39 38 37 33 33
24 27 27 27 27 27 28 28 26 27 24 20 22 19 21 21 24 26 30 33 35 36 35 36 37 38 40 42 42 41 40 39 40 41 42 41 40 39 36 36 35 33 33 32
23 26 29 29 26 28 27 24 22 23 22 21 24 17 26 27 28 30 31 33 35 36 36 36 37 37 39 40 41 41 40 40 39 39 39 38 37 37 36 36 34 35 33 31
21 24 26 29 28 27 27 26 27 19 18 18 23 14 24 28 30 31 31 32 33 34 36 36 37 38 38 39 40 42 42 40 38 39 39 39 40 38 38 36 36 34 32 33
23 24 29 30 30 29 27 27 28 28 29 25 16 22 28 29 30 30 31 32 33 34 35 35 36 37 38 39 39 40 41 39 39 39 40 40 39 38 37 36 34 32 33 33
27 25 25 27 30 31 28 29 27 26 23 14 10 11 16 28 28 30 28 29 32 33 35 35 35 36 37 37 39 39 38 37 39 39 38 37 38 37 35 33 32 32 33 34
25 25 24 24 26 23 27 27 27 23 24 19 14 13 23 24 26 27 27 30 33 34 35 34 34 36 37 38 38 36 36 37 37 36 35 34 34 34 33 31 31 32 33 32
30 27 21 17 26 30 27 26 25 22 16 23 25 21 25 25 27 29 29 31 33 35 34 34 35 37 37 37 36 35 35 34 34 32 31 31 32 32 31 31 34 35 33 34
31 28 20 17 26 29 26 26 26 25 27 20 22 22 25 26 26 27 28 33 33 33 33 34 35 35 35 35 34 32 33 33 31 29 29 29 30 35 35 35 38 36 33 33
35 27 22 18 17 19 19 20 20 22 24 25 23 21 22 23 26 27 28 32 33 33 33 35 35 34 34 32 29 32 31 30 28 28 29 28 33 33 32 34 32 29 28 26
33 28 26 25 22 20 20 21 21 20 21 22 24 23 24 25 27 30 32 32 32 32 33 35 35 34 30 26 29 31 29 27 27 28 27 27 29 29 29 29 27 25 23 20
33 30 32 26 23 21 21 21 21 22 24 24 24 24 26 29 28 31 31 34 35 34 35 36 33 29 25 26 29 28 27 26 26 26 27 27 27 29 29 25 24 20 17 17
34 34 29 26 28 29 28 26 22 22 25 25 24 25 26 28 31 34 35 35 36 36 37 35 28 26 25 27 28 26 26 25 23 25 25 26 28 26 25 22 17 16 17 18
38 34 35 31 31 24 26 25 24 24 24 25 24 25 28 32 35 34 37 37 37 37 36 31 27 25 25 26 28 26 24 24 24 22 25 27 26 26 23 17 16 16 17 17
35 36 32 30 25 24 25 26 26 25 26 27 28 31 32 35 36 33 38 38 36 36 32 28 26 23 22 25 27 25 24 24 21 20 21 24 26 25 20 16 17 18 18 18
35 38 35 31 27 22 26 27 30 30 26 33 34 34 34 35 34 35 39 37 35 30 27 25 24 22 22 22 24 24 23 23 22 19 20 21 23 22 19 18 18 18 18 17
33 34 32 30 28 27 27 30 32 26 31 36 36 38 38 38 38 38 37 32 29 27 25 24 24 23 22 22 22 22 21 22 21 20 22 23 27 27 20 19 19 18 18 20
29 32 30 32 28 26 30 30 33 35 38 39 39 39 38 36 35 32 29 27 24 22 21 22 23 23 23 22 21 20 19 22 26 28 28 33 36 30 21 21 19 19 19 20
25 28 29 30 30 29 31 32 37 39 39 39 39 38 36 32 28 27 24 21 20 19 19 21 21 21 20 20 19 19 21 25 28 29 32 34 30 26 23 23 21 19 18 21
30 29 32 32 30 30 34 37 41 40 39 39 38 34 30 27 24 21 20 17 14 14 15 17 19 18 18 18 18 19 22 27 27 27 27 30 29 26 23 22 18 17 20 22
34 33 34 34 33 35 39 41 41 40 39 37 31 28 26 21 20 17 13 14 14 16 16 18 18 18 18 18 19 22 26 26 25 25 24 23 24 24 26 24 20 20 22 22
34 33 34 34 38 39 40 41 41 39 33 30 25 22 22 20 15 15 17 17 17 18 18 18 17 17 19 20 24 25 26 27 27 25 23 24 25 25 26 22 21 22 23 21